Regional Weather Roundup
Issued by NWS

Home | Current Version | Previous Version | Text Only | Print | Product List | Glossary Off
Versions: 1 2 3 4 5 6 7 8 9 10 11 12 13 14 15 16 17 18 19 20 21 22 23 24 25 26 27 28 29 30 31 32 33 34 35 36 37 38 39 40 41 42 43 44 45 46 47 48 49 50

000
ASUS43 KLOT 221803
RWRIL

ILLINOIS REGIONAL WEATHER ROUNDUP
NATIONAL WEATHER SERVICE CHICAGO/ROMEOVILLE IL
1200 PM CST THU FEB 22 2018

NOTE: "FAIR" INDICATES FEW OR NO CLOUDS BELOW 12,000 FEET WITH NO
SIGNIFICANT WEATHER AND/OR OBSTRUCTIONS TO VISIBILITY.

* THESE STATIONS ARE NOT UNDER NWS QUALITY CONTROL. THEY ALSO MAY NOT
  REPORT WEATHER SUCH AS PRECIPITATION OR FOG.

ILZ001-002-007-009-015-016-024-221900-
NORTHWEST ILLINOIS

CITY           SKY/WX    TMP DP  RH WIND       PRES   REMARKS
MOLINE         CLOUDY    38  29  70 E18       30.44F WCI  28
6HR MIN TEMP:  29; 6HR MAX TEMP:  38;

SAVANNA*       CLOUDY    33  26  76 E13G20    30.49F WCI  24
$$

ILZ003-004-008-010-011-017-018-221900-
NORTH CENTRAL ILLINOIS

CITY           SKY/WX    TMP DP  RH WIND       PRES   REMARKS
ROCKFORD       CLOUDY    35  27  72 E15G24    30.51F WCI  25
6HR MIN TEMP:  28; 6HR MAX TEMP:  36;

FREEPORT*      CLOUDY    32  26  78 E13       30.51F WCI  22
ROCHELLE*      CLOUDY    36  31  83 NE17G23   30.48F WCI  26
DE KALB*       CLOUDY    39  31  72 E18       30.48F WCI  30
PERU*          CLOUDY    38  32  80 E15G23    30.46F WCI  29
$$

ILZ005-006-012>014-019>023-221900-
NORTHEAST ILLINOIS

CITY           SKY/WX    TMP DP  RH WIND       PRES   REMARKS
CHICAGO-OHARE  PTSUNNY   39  27  62 E14       30.51F WCI  31
6HR MIN TEMP:  32; 6HR MAX TEMP:  40;

CHICAGO-MIDWAY PTSUNNY   39  31  72 E16       30.51F WCI  30
6HR MIN TEMP:  33; 6HR MAX TEMP:  39;

AURORA         PTSUNNY   41  32  70 E16       30.48F
6HR MIN TEMP:  31; 6HR MAX TEMP:  41;

LANSING*       CLOUDY    39  34  83 NE9       30.50F WCI  32
JOLIET*        CLOUDY    43  34  70 E12       30.49S
WAUKEGAN       CLOUDY    35  30  82 NE15G21   30.54F WCI  25
6HR MIN TEMP:  30; 6HR MAX TEMP:  36;

DUPAGE AIRPORT FAIR      40  32  73 E16       30.48F
6HR MIN TEMP:  30; 6HR MAX TEMP:  40;

KANKAKEE*      CLOUDY    44  37  78 E20       30.46F
WHEELING       PTSUNNY   39  30  70 E13       30.54F WCI  31
6HR MIN TEMP:  33; 6HR MAX TEMP:  39;

MORRIS*        CLOUDY    41  34  75 E14G20    30.47F
ROMEOVILLE*    CLOUDY    40  32  72 NE13      30.49F
NORTHERLY ISL    N/A     35  29  79 NE12        N/A  WCI  27
$$

LMZ740>746-221900-
SOUTHERN LAKE MICHIGAN

STATION/POSITION SKY/WX   TEMP    WIND        PRES    VSBY  WAVE
                          AIR SEA DIR/SP/G                  HT/PER
                          (F)     (DEG/KT/KT) (MB)    (MI)  (FT/S)
HARRISON CRIB              34      60/ 18/ 19   N/A
BURNHAM HARBOR             35      40/ 13/ 15   N/A
CALUMET HARBOR             34      40/ 12/ 17 1032.9F
BURNS HARBOR               34      30/ 15/ 16 1033.5F
MICHIGAN CITY              36      20/ 12/ 13   N/A
$$

ILZ025>027-034>036-040-047-049-050-058-095>099-221900-
WEST-CENTRAL ILLINOIS

CITY           SKY/WX    TMP DP  RH WIND       PRES   REMARKS
QUINCY         FOG       33  32  96 E7        30.38F VSB 1/2 WCI  27
GALESBURG*     CLOUDY    37  33  85 NE14      30.42F WCI  29
MACOMB*        CLOUDY    35  34  96 E10       30.44F FOG     WCI  27
JACKSONVILLE*  CLOUDY    35  34  95 NE5       30.40F FOG     WCI  31
PITTSFIELD*    FOG       34  34  99 NE6       30.40F VSB 3/4 WCI  29
$$

ILZ028>032-037-038-041>044-048-051>054-059>061-221900-
CENTRAL ILLINOIS

CITY           SKY/WX    TMP DP  RH WIND       PRES   REMARKS
BLOOMINGTON    CLOUDY    40  38  93 E15       30.41F
DECATUR        CLOUDY    42  40  92 E21       30.39F
PEORIA         CLOUDY    39  34  82 E14G23    30.42F WCI  31
6HR MIN TEMP:  31; 6HR MAX TEMP:  39;

LACON*         CLOUDY    39  35  85 E14       30.44F WCI  30
LINCOLN*       CLOUDY    42  40  93 E12G17    30.40F
SPRINGFIELD    CLOUDY    44  40  85 SE15      30.39F
6HR MIN TEMP:  34; 6HR MAX TEMP:  44; 6HR PCP: TRACE;

TAYLORVILLE    CLOUDY    41  39  91 E15       30.39F
6HR MIN TEMP:  33; 6HR MAX TEMP:  41; 6HR PCP:  0.01;

$$

ILZ033-039-045-046-055>057-062-063-221900-
EAST-CENTRAL ILLINOIS

CITY           SKY/WX    TMP DP  RH WIND       PRES   REMARKS
CHAMPAIGN      CLOUDY    42  40  92 E16       30.42R
DANVILLE*      CLOUDY    41  38  90 E14       30.40S
RANTOUL*       CLOUDY    42  40  92 E16       30.42F
MATTOON        CLOUDY    43  40  89 E9        30.38F
PARIS*         CLOUDY    42  39  92 E12       30.42S FOG
$$

ILZ079-100>102-221900-
SOUTHWEST ILLINOIS

CITY           SKY/WX    TMP DP  RH WIND       PRES   REMARKS
ALTON          CLOUDY    41  41 100 E6        30.38F FOG
BELLEVILLE     CLOUDY    43  40  91 E3        30.36F
CAHOKIA*       CLOUDY    42  39  89 NE7       30.41S FOG
SPARTA*        CLOUDY    42  42 100 E5        30.38F
$$

ILZ064>066-069>071-074>076-080>082-084>086-088>090-092>094-221900-
SOUTH-CENTRAL ILLINOIS

CITY           SKY/WX    TMP DP  RH WIND       PRES   REMARKS
CARBONDALE     CLOUDY    44  43  96 E5        30.37F
6HR MIN TEMP:  38; 6HR MAX TEMP:  44;

CAIRO*         CLOUDY    45  44  97 CALM      30.37F FOG
EFFINGHAM*     CLOUDY    44  44 100 NE9       30.40F FOG
MARION         CLOUDY    43  43 100 NE6       30.38F FOG
MT. VERNON     CLOUDY    45  43  93 E6        30.38F
CENTRALIA*     CLOUDY    45  44  96 E8        30.37F
SALEM*         CLOUDY    45  42  89 E6        30.38F
METROPOLIS*    CLOUDY    47  46  94 CALM      30.38S FOG
$$

ILZ067-068-072-073-078-083-087-091-221900-
SOUTHEAST ILLINOIS

CITY           SKY/WX    TMP DP  RH WIND       PRES   REMARKS
LAWRENCEVILLE  CLOUDY    48  44  86 E8        30.40S
FLORA*         CLOUDY    46  43  89 E7        30.39F
FAIRFIELD*     CLOUDY    46  45  95 CALM      30.37F
HARRISBURG*    CLOUDY    46  45  95 E7        30.38F
ROBINSON*      CLOUDY    45  42  91 NE8       30.41S
CARMI*         CLOUDY    47  45  93 CALM      30.38S
$$

ABBREVIATIONS USED IN REMARKS
   TC - TEMPERATURE IN CELSIUS
  WCI - WIND CHILL INDEX
   HX - HEAT INDEX
  VSB - VISIBILITY
$$




USA.gov is the U.S. government's official web portal to all federal, state and local government web resources and services.